Weather History for Abidjan, Ivory Coast

Change the Weather History Date:

Monday, February 11, 2013

  Actual Average Record
Temperature  
Mean Temperature 84 °F -  
Max Temperature 89 °F 88 °F 91 °F (2005)
Min Temperature 80 °F 76 °F 39 °F (2006)
Cooling Degree Days 20    
Growing Degree Days 34 (Base 50)    
Moisture  
Dew Point 79 °F    
Average Humidity 83    
Maximum Humidity 94    
Minimum Humidity 61    
Precipitation  
Precipitation 0.00 in 0.09 in - ()
Sea Level Pressure  
Sea Level Pressure 29.80 in    
Wind  
Wind Speed 8 mph ()    
Max Wind Speed 15 mph    
Max Gust Speed -    
Visibility 5.4 miles    
Events      
Averages and records for this station are not official NWS values.
T = Trace of Precipitation, MM = Missing Value Source: Averaged Metar Reports

Daily Weather History Graph

Daily Weather History Graph

Search for Another Location

Airport:

Trip Planner

Search our weather history database for the weather conditions in past years. The results will help you decide how hot, cold, wet, or windy it might be!

Date:

Astronomy

Feb. 11, 2013 Rise Set
Actual Time 6:31 AM GMT 6:28 PM GMT
Civil Twilight 6:10 AM GMT 6:49 PM GMT
Nautical Twilight 5:45 AM GMT 7:14 PM GMT
Astronomical Twilight 5:20 AM GMT 7:39 PM GMT
Moon 7:14 AM GMT (2/11) 7:35 PM GMT (2/11)
Length of Visible Light 12h 39m
Length of Day
11h 56m
New Moon, 2% of the Moon is Illuminated
Feb 11
New Moon
Feb 17
First Quarter
Feb 25
Full
Mar 4
Last Quarter
Mar 11
New

Hourly Weather History & Observations

Time (GMT) Temp. Heat Index Dew Point Humidity Pressure Visibility Wind Dir Wind Speed Gust Speed Precip Events Conditions
12:00 AM 83 °F - 80 °F 88% 29.84 in 4 mi WSW 6.9 mph - -   Mostly Cloudy
12:00 AM 82.4 °F 92.4 °F 78.8 °F 89% 29.83 in 6.2 mi SW 8.1 mph - N/A   Scattered Clouds
12:30 AM 82.4 °F 94.0 °F 80.6 °F 94% 29.83 in 6.2 mi SW 6.9 mph - N/A   Scattered Clouds
1:00 AM 82.4 °F 92.4 °F 78.8 °F 89% 29.80 in 6.2 mi SW 6.9 mph - N/A   Scattered Clouds
1:30 AM 82.4 °F 94.0 °F 80.6 °F 94% 29.80 in 6.2 mi SW 6.9 mph - N/A   Scattered Clouds
2:00 AM 82.4 °F 92.4 °F 78.8 °F 89% 29.80 in 6.2 mi SW 6.9 mph - N/A   Scattered Clouds
2:30 AM 82.4 °F 92.4 °F 78.8 °F 89% 29.80 in 6.2 mi WSW 6.9 mph - N/A   Scattered Clouds
3:00 AM 82 °F - 79 °F 89% 29.79 in 4 mi WSW 6.9 mph - -   Mostly Cloudy
3:00 AM 82.4 °F 92.4 °F 78.8 °F 89% 29.80 in 6.2 mi WSW 6.9 mph - N/A   Scattered Clouds
3:30 AM 82.4 °F 92.4 °F 78.8 °F 89% 29.77 in 6.2 mi WSW 5.8 mph - N/A   Scattered Clouds
4:00 AM 82.4 °F 92.4 °F 78.8 °F 89% 29.77 in 6.2 mi WSW 6.9 mph - N/A   Scattered Clouds
4:30 AM 82.4 °F 92.4 °F 78.8 °F 89% 29.77 in 6.2 mi WSW 6.9 mph - N/A   Scattered Clouds
5:00 AM 82.4 °F 92.4 °F 78.8 °F 89% 29.77 in 6.2 mi WSW 6.9 mph - N/A   Scattered Clouds
5:30 AM 82.4 °F 92.4 °F 78.8 °F 89% 29.77 in 6.2 mi WSW 6.9 mph - N/A   Scattered Clouds
6:00 AM 82 °F - 79 °F 88% 29.79 in 4 mi WSW 6.9 mph - -   Mostly Cloudy
6:00 AM 82.4 °F 92.4 °F 78.8 °F 89% 29.80 in 6.2 mi WSW 6.9 mph - N/A   Scattered Clouds
6:30 AM 80.6 °F 88.1 °F 78.8 °F 94% 29.80 in 5.0 mi West 4.6 mph - N/A   Mostly Cloudy
7:00 AM 80.6 °F 88.1 °F 78.8 °F 94% 29.80 in 5.0 mi WSW 5.8 mph - N/A   Mostly Cloudy
7:30 AM 82.4 °F 92.4 °F 78.8 °F 89% 29.80 in 4.3 mi WSW 5.8 mph - N/A   Mostly Cloudy
8:00 AM 82.4 °F 92.4 °F 78.8 °F 89% 29.83 in 5.0 mi WSW 8.1 mph - N/A   Mostly Cloudy
8:30 AM 84.2 °F 96.1 °F 78.8 °F 84% 29.83 in 6.2 mi WSW 9.2 mph - N/A   Mostly Cloudy
9:00 AM 85 °F - 79 °F 77% 29.85 in 4 mi WSW 9.2 mph - -   Partly Cloudy
9:00 AM 86.0 °F 99.3 °F 78.8 °F 79% 29.83 in 5.0 mi WSW 10.4 mph - N/A   Mostly Cloudy
9:30 AM 86.0 °F 99.3 °F 78.8 °F 79% 29.86 in 5.0 mi WSW 11.5 mph - N/A   Scattered Clouds
9:52 AM 86.0 °F 99.3 °F 78.8 °F 79% 29.86 in 6.2 mi WSW 11.5 mph - N/A   Mostly Cloudy
10:00 AM 86.0 °F 99.3 °F 78.8 °F 79% 29.86 in 6.2 mi WSW 11.5 mph - N/A   Mostly Cloudy
10:01 AM 86.0 °F 99.3 °F 78.8 °F 79% 29.86 in 6.2 mi WSW 11.5 mph - N/A   Mostly Cloudy
10:30 AM 86.0 °F 99.3 °F 78.8 °F 79% 29.86 in 6.2 mi West 12.7 mph - N/A   Mostly Cloudy
11:00 AM 86.0 °F 99.3 °F 78.8 °F 79% 29.86 in 6.2 mi WSW 11.5 mph - N/A   Mostly Cloudy
11:30 AM 87.8 °F 99.7 °F 77.0 °F 70% 29.83 in 5.0 mi WSW 11.5 mph - N/A   Mostly Cloudy
12:00 PM 88 °F - 76 °F 61% 29.83 in 5 mi WSW 11.5 mph - -   Partly Cloudy
12:00 PM 87.8 °F 102.5 °F 78.8 °F 75% 29.83 in 5.0 mi WSW 12.7 mph - N/A   Mostly Cloudy
12:30 PM 87.8 °F 99.7 °F 77.0 °F 70% 29.83 in 5.0 mi WSW 13.8 mph - N/A   Mostly Cloudy
1:00 PM 87.8 °F 99.7 °F 77.0 °F 70% 29.80 in 5.0 mi WSW 12.7 mph - N/A   Mostly Cloudy
1:30 PM 89.6 °F 102.2 °F 77.0 °F 66% 29.80 in 5.0 mi WSW 15.0 mph - N/A   Mostly Cloudy
2:00 PM 87.8 °F 99.7 °F 77.0 °F 70% 29.77 in 5.0 mi WSW 15.0 mph - N/A   Mostly Cloudy
2:30 PM 87.8 °F 102.5 °F 78.8 °F 75% 29.77 in 5.0 mi WSW 13.8 mph - N/A   Mostly Cloudy
3:00 PM 86 °F - 76 °F 66% 29.75 in 5 mi WSW 11.5 mph - -   Partly Cloudy
3:00 PM 87.8 °F 102.5 °F 78.8 °F 75% 29.77 in 5.0 mi WSW 12.7 mph - N/A   Mostly Cloudy
3:30 PM 86.0 °F 99.3 °F 78.8 °F 79% 29.74 in 6.2 mi WSW 12.7 mph - N/A   Mostly Cloudy
4:00 PM 86.0 °F 99.3 °F 78.8 °F 79% 29.74 in 6.2 mi WSW 12.7 mph - N/A   Mostly Cloudy
4:30 PM 86.0 °F 99.3 °F 78.8 °F 79% 29.74 in 6.2 mi WSW 12.7 mph - N/A   Mostly Cloudy
5:00 PM 86.0 °F 99.3 °F 78.8 °F 79% 29.74 in 5.0 mi WSW 12.7 mph - N/A   Mostly Cloudy
5:30 PM 84.2 °F 96.1 °F 78.8 °F 84% 29.74 in 5.0 mi WSW 10.4 mph - N/A   Mostly Cloudy
6:00 PM 84 °F - 79 °F 80% 29.76 in 4 mi WSW 9.2 mph - -   Partly Cloudy
6:00 PM 84.2 °F 96.1 °F 78.8 °F 84% 29.74 in 5.0 mi WSW 9.2 mph - N/A   Mostly Cloudy
6:30 PM 84.2 °F 96.1 °F 78.8 °F 84% 29.77 in 5.0 mi WSW 8.1 mph - N/A   Mostly Cloudy
7:00 PM 84.2 °F 96.1 °F 78.8 °F 84% 29.77 in 5.0 mi WSW 9.2 mph - N/A   Mostly Cloudy
7:30 PM 84.2 °F 96.1 °F 78.8 °F 84% 29.77 in 5.0 mi SW 8.1 mph - N/A   Mostly Cloudy
8:00 PM 84.2 °F 96.1 °F 78.8 °F 84% 29.77 in 5.0 mi SW 8.1 mph - N/A   Mostly Cloudy
8:30 PM 84.2 °F 96.1 °F 78.8 °F 84% 29.80 in 5.0 mi SW 8.1 mph - N/A   Mostly Cloudy
9:00 PM 83 °F - 80 °F 87% 29.80 in 4 mi SW 6.9 mph - -   Mostly Cloudy
9:00 PM 84.2 °F 96.1 °F 78.8 °F 84% 29.80 in 5.0 mi SW 8.1 mph - N/A   Mostly Cloudy
9:30 PM 82.4 °F 92.4 °F 78.8 °F 89% 29.83 in 5.0 mi SSW 8.1 mph - N/A   Mostly Cloudy
10:00 PM 82.4 °F 94.0 °F 80.6 °F 94% 29.83 in 6.2 mi SSW 6.9 mph - N/A   Mostly Cloudy
11:00 PM 82.4 °F 94.0 °F 80.6 °F 94% 29.83 in 5.0 mi SW 5.8 mph - N/A   Mostly Cloudy
11:30 PM 82.4 °F 94.0 °F 80.6 °F 94% 29.83 in 5.0 mi SW 5.8 mph - N/A   Overcast